User: anonymous   Login
Location: Macksville High School
(37.9611°N, 99.9654°W)
Time: 17:58:01
(UTC+00:00)
Language:

Cosmos 2228 Rocket - Orbit

View from above orbital plane
View from above orbital plane
View from above satellite
View from above satellite

Ground track
Ground track

The orbit data is extracted from the following two-line orbital elements,

1 22287U 92094B   20151.98668191  .00000068  00000-0  61649-5 0  9997
2 22287  82.5226 152.6920 0025715  41.4746 318.8411 14.78146931477917
Epoch (UTC): 30 May 2020 23:40:49
Eccentricity: 0.0025715
inclination: 82.5226°
perigee height: 617 km
apogee height: 653 km
right ascension of ascending node: 152.6920°
argument of perigee: 41.4746°
revolutions per day: 14.78146931
mean anomaly at epoch: 318.8411°
orbit number at epoch: 47791

The dashed part of the orbit path shows where the satellite is in the earth's shadow,  

DLR